Zurück zum Katalog

PERSEUS M1

AktivWissenschaftSSO
NORAD 40039·PAYLOAD·🇷🇺 Russia

Gestartet Jun 19, 2014 von Dombarovsky

Loading…

Nächste Überflüge (nächste 24 Stunden)

TLE

AktuellSource: Space-Track

Epoche: Sep 14, 2026, 06:38 UTC

1 40039U 14033AF  26257.27684687  .00001674  00000-0  15499-3 0  9996
2 40039  97.9713 202.9122 0011780  10.0804 350.0651 14.95876670663954

Verfolge PERSEUS M1 in Echtzeit mit AllMySat

Download on the App Store